{"data":{"norad_id":59362,"intl_designator":"2024-060Q","name":"STARLINK-31571","alt_names":[],"object_type":"PAYLOAD","status":"ACTIVE","operator":null,"country":"US","launch_date":"2024-03-31","launch_site_code":"AFETR","launch_vehicle":null,"mission":null,"orbit_class":"UNKNOWN","rcs_meters":null,"size_class":null,"mass_kg":null,"dimensions":null,"purposes":["comms"],"wikipedia_slug":null,"has_3d_model":false,"image_url":null,"decayed_at":null,"tle_current":{"epoch":"2026-09-21T22:24:58.773312Z","epoch_age_seconds":38362,"freshness":"FRESH","line1":"1 59362U 24060Q   26264.93401358 -.00000169  00000+0  33888-5 0  9991","line2":"2 59362  43.0007 231.7587 0001168 271.0790  88.9928 15.27575847140073","mean_motion":15.27575847,"eccentricity":0.0001168,"inclination_deg":43.0007,"raan_deg":231.7587,"arg_perigee_deg":271.079,"mean_anomaly_deg":88.9928,"bstar":3.3888e-6,"rev_number":14007,"period_min":94.267004995399,"perigee_km":482.26014365537,"apogee_km":483.86291963236,"semimajor_km":6861.1985316439,"source":"CELESTRAK","updated_at":"2026-09-22T09:00:48.905789Z"}}}